Weather History for Shirley, NY

Change the Weather History Date:

Thursday, July 11, 2013

  Actual Average (KISP) Record (KISP)
Temperature  
Mean Temperature 76 °F 74 °F  
Max Temperature 81 °F 82 °F 93 °F (1988)
Min Temperature 72 °F 66 °F 53 °F (2009)
Degree Days  
Heating Degree Days 0 0  
Month to date heating degree days 0  
Since 1 June heating degree days 38  
Since 1 July heating degree days 0  
Cooling Degree Days 12 9  
Month to date cooling degree days 92  
Year to date cooling degree days 256  
Since 1 June cooling degree days 232  
Growing Degree Days 26 (Base 50)    
Moisture  
Dew Point 72 °F    
Average Humidity 88    
Maximum Humidity 94    
Minimum Humidity 71    
Precipitation  
Precipitation 0.17 in 0.11 in 0.84 in (2003)
Month to date precipitation 1.10  
Year to date precipitation 24.83  
Snow  
Snow 0.00 in 0.00 in - ()
Month to date snowfall 0.0  
Since 1 July snowfall 0.0  
Snow Depth -    
Sea Level Pressure  
Sea Level Pressure 29.86 in    
Wind  
Wind Speed 6 mph (SW)    
Max Wind Speed 13 mph    
Max Gust Speed 18 mph    
Visibility 8 miles    
Events Rain    
T = Trace of Precipitation, MM = Missing Value Source: NWS Daily Summary

Daily Weather History Graph

Daily Weather History Graph

Search for Another Location

Airport:

Trip Planner

Search our weather history database for the weather conditions in past years. The results will help you decide how hot, cold, wet, or windy it might be!

Date:

Astronomy

Jul. 11, 2013 Rise Set
Actual Time 5:29 AM EDT 8:23 PM EDT
Civil Twilight 4:57 AM EDT 8:56 PM EDT
Nautical Twilight 4:15 AM EDT 9:37 PM EDT
Astronomical Twilight 3:27 AM EDT 10:25 PM EDT
Moon 8:47 AM EDT (7/11) 10:01 PM EDT (7/11)
Length of Visible Light 15h 59m
Length of Day
14h 53m
Waxing Crescent, 10% of the Moon is Illuminated
Jul 11
Waxing Crescent
Jul 15
First Quarter
Jul 22
Full
Jul 29
Last Quarter
Aug 6
New

Hourly Weather History & Observations

Time (EDT) Temp. Heat Index Dew Point Humidity Pressure Visibility Wind Dir Wind Speed Gust Speed Precip Events Conditions
12:56 AM 75.0 °F - 72.0 °F 90% 29.83 in 8.0 mi SSW 4.6 mph - N/A   Clear
1:56 AM 75.9 °F - 73.0 °F 91% 29.83 in 7.0 mi SSW 6.9 mph - N/A   Clear
2:30 AM 75.2 °F - 71.6 °F 89% 29.84 in 7.0 mi SSW 8.1 mph - N/A   Scattered Clouds
2:51 AM 75.2 °F - 71.6 °F 89% 29.84 in 7.0 mi SSW 6.9 mph - N/A   Overcast
2:56 AM 75.0 °F - 72.0 °F 90% 29.84 in 7.0 mi SSW 8.1 mph - N/A   Overcast
3:56 AM 75.0 °F - 73.0 °F 94% 29.83 in 7.0 mi SW 5.8 mph - N/A   Mostly Cloudy
4:06 AM 75.2 °F - 73.4 °F 94% 29.83 in 8.0 mi SSW 5.8 mph - N/A   Mostly Cloudy
4:56 AM 75.9 °F - 73.0 °F 91% 29.83 in 8.0 mi SSW 8.1 mph - N/A   Scattered Clouds
5:36 AM 73.4 °F - 71.6 °F 94% 29.84 in 8.0 mi SSW 12.7 mph - N/A   Overcast
5:46 AM 73.4 °F - 71.6 °F 94% 29.84 in 8.0 mi South 11.5 mph - 0.00 in Rain Light Rain
5:56 AM 73.9 °F - 71.1 °F 91% 29.84 in 7.0 mi SSW 9.2 mph 18.4 mph 0.00 in   Overcast
6:56 AM 73.9 °F - 71.1 °F 91% 29.86 in 8.0 mi SSW 9.2 mph - 0.00 in Rain Light Rain
7:56 AM 73.9 °F - 72.0 °F 93% 29.86 in 8.0 mi South 6.9 mph - 0.01 in   Overcast
8:34 AM 75.2 °F - 71.6 °F 89% 29.86 in 9.0 mi SSW 8.1 mph - N/A   Mostly Cloudy
8:44 AM 75.2 °F - 71.6 °F 89% 29.86 in 9.0 mi SW 8.1 mph - N/A   Mostly Cloudy
8:52 AM 75.2 °F - 71.6 °F 89% 29.86 in 10.0 mi SSW 6.9 mph - N/A   Mostly Cloudy
8:56 AM 75.0 °F - 72.0 °F 90% 29.86 in 10.0 mi SW 8.1 mph - N/A   Mostly Cloudy
9:32 AM 75.2 °F - 71.6 °F 89% 29.87 in 9.0 mi SW 10.4 mph - N/A   Mostly Cloudy
9:56 AM 75.0 °F - 72.0 °F 90% 29.86 in 3.0 mi SSW 9.2 mph - 0.03 in Rain Rain
10:03 AM 75.2 °F - 71.6 °F 89% 29.86 in 1.8 mi SSW 5.8 mph - 0.03 in Rain Rain
10:10 AM 75.2 °F - 71.6 °F 89% 29.86 in 1.2 mi SSW 5.8 mph - 0.10 in Rain Rain
10:20 AM 75.2 °F - 73.4 °F 94% 29.86 in 3.0 mi SW 5.8 mph - 0.11 in Rain Light Rain
10:56 AM 75.9 °F - 73.0 °F 91% 29.86 in 8.0 mi SSW 5.8 mph - 0.11 in   Mostly Cloudy
11:08 AM 75.2 °F - 73.4 °F 94% 29.87 in 7.0 mi SW 5.8 mph - 0.00 in Rain Light Rain
11:36 AM 77.0 °F - 73.4 °F 89% 29.87 in 7.0 mi WSW 3.5 mph - 0.00 in Rain Light Rain
11:44 AM 75.2 °F - 73.4 °F 94% 29.87 in 6.0 mi Calm Calm - 0.00 in Rain Light Rain
11:53 AM 77.0 °F - 73.4 °F 89% 29.87 in 5.0 mi WSW 3.5 mph - 0.01 in Rain Light Rain
11:56 AM 77.0 °F - 73.9 °F 90% 29.86 in 5.0 mi SW 3.5 mph - 0.01 in Rain Light Rain
12:05 PM 77.0 °F - 73.4 °F 89% 29.86 in 5.0 mi Calm Calm - 0.00 in Rain Light Rain
12:24 PM 77.0 °F - 73.4 °F 89% 29.87 in 7.0 mi West 4.6 mph - 0.01 in Rain Light Rain
12:35 PM 77.0 °F - 73.4 °F 89% 29.86 in 8.0 mi West 3.5 mph - 0.01 in Rain Light Rain
12:56 PM 78.1 °F - 73.0 °F 84% 29.86 in 10.0 mi Calm Calm - 0.01 in   Scattered Clouds
1:56 PM 79.0 °F - 73.0 °F 82% 29.86 in 9.0 mi South 6.9 mph - N/A   Overcast
2:56 PM 79.0 °F - 73.0 °F 82% 29.85 in 8.0 mi South 4.6 mph - N/A   Scattered Clouds
3:17 PM 78.8 °F - 73.4 °F 83% 29.86 in 8.0 mi SW 4.6 mph - N/A   Mostly Cloudy
3:32 PM 80.6 °F 85.4 °F 73.4 °F 79% 29.86 in 9.0 mi SW 4.6 mph - N/A   Scattered Clouds
3:41 PM 80.6 °F 85.4 °F 73.4 °F 79% 29.85 in 9.0 mi South 3.5 mph - N/A   Mostly Cloudy
3:51 PM 80.6 °F 85.4 °F 73.4 °F 79% 29.86 in 9.0 mi Calm Calm - N/A   Partly Cloudy
3:56 PM 81.0 °F 86.2 °F 73.9 °F 79% 29.86 in 9.0 mi Variable 3.5 mph - N/A   Scattered Clouds
4:03 PM 80.6 °F 85.4 °F 73.4 °F 79% 29.86 in 9.0 mi Calm Calm - N/A   Mostly Cloudy
4:14 PM 80.6 °F 85.4 °F 73.4 °F 79% 29.86 in 9.0 mi Calm Calm - N/A   Scattered Clouds
4:56 PM 81.0 °F 85.8 °F 73.0 °F 77% 29.86 in 9.0 mi South 5.8 mph - N/A   Partly Cloudy
5:56 PM 80.1 °F 83.2 °F 70.0 °F 71% 29.86 in 10.0 mi South 5.8 mph - N/A   Clear
6:56 PM 78.1 °F - 69.1 °F 74% 29.88 in 10.0 mi SSW 3.5 mph - N/A   Clear
7:56 PM 75.9 °F - 71.1 °F 85% 29.88 in 9.0 mi Calm Calm - N/A   Clear
8:56 PM 73.9 °F - 70.0 °F 87% 29.90 in 8.0 mi Calm Calm - N/A   Clear
9:56 PM 73.0 °F - 70.0 °F 90% 29.92 in 7.0 mi WNW 4.6 mph - N/A   Clear
10:56 PM 72.0 °F - 70.0 °F 93% 29.91 in 8.0 mi Calm Calm - N/A   Clear
11:56 PM 72.0 °F - 70.0 °F 93% 29.92 in 5.0 mi Calm Calm - N/A   Clear